GW4693 Weather Reports


time (UTC)temp
C
wind
direction
speed
KPH
gust
KPH
rain 1hr
cm
rain 24hr
cm
rain mn
cm
humidity
%
barometer
mb
20260507202011 24 66 8.0 25.7 0.00 0.00 0.00 60 1006.6
20260507201518 24 13 9.7 25.7 0.00 0.00 0.00 59 1006.7
20260507201007 24 34 8.0 20.9 0.00 0.00 0.00 59 1006.6
20260507200506 24 316 9.7 20.9 0.00 0.00 0.00 59 1006.7
20260507200021 25 348 9.7 19.3 0.00 0.00 0.00 58 1006.6
20260507195506 25 44 8.0 17.7 0.00 0.00 0.00 58 1006.7
20260507195007 25 324 6.4 20.9 0.00 0.00 0.00 57 1006.7
20260507194526 25 24 11.3 20.9 0.00 0.00 0.00 57 1006.8
20260507194003 25 294 6.4 29.0 0.00 0.00 0.00 58 1006.8
20260507193503 24 343 11.3 29.0 0.00 0.00 0.00 58 1006.9
20260507193017 24 313 8.0 19.3 0.00 0.00 0.00 59 1007.0
20260507192505 24 345 12.9 22.5 0.00 0.00 0.00 58 1007.0
20260507192003 24 14 11.3 25.7 0.00 0.00 0.00 58 1006.9
20260507191514 24 327 14.5 25.7 0.00 0.00 0.00 57 1007.0
20260507191002 24 323 8.0 24.1 0.00 0.00 0.00 57 1007.0
20260507190506 24 24 4.8 19.3 0.00 0.00 0.00 58 1007.1
20260507190022 24 326 6.4 17.7 0.00 0.00 0.00 57 1007.0
20260507185507 25 41 8.0 20.9 0.00 0.00 0.00 56 1006.9
20260507185006 25 302 4.8 25.7 0.00 0.00 0.00 56 1006.7
20260507184521 25 41 8.0 32.2 0.00 0.00 0.00 55 1006.7
20260507184007 25 332 16.1 32.2 0.00 0.00 0.00 55 1006.6
20260507183510 25 303 14.5 41.8 0.00 0.00 0.00 55 1006.4
20260507183023 25 312 22.5 41.8 0.00 0.00 0.00 53 1006.3
20260507182503 25 351 19.3 37.0 0.00 0.00 0.00 53 1006.1
20260507182004 25 323 16.1 37.0 0.00 0.00 0.00 54 1005.9
20260507181515 25 317 17.7 33.8 0.00 0.00 0.00 53 1005.9
20260507181004 25 358 16.1 40.2 0.00 0.00 0.00 53 1006.0
20260507180504 25 359 11.3 40.2 0.00 0.00 0.00 54 1006.1
20260507180015 25 326 12.9 35.4 0.00 0.00 0.00 53 1006.2
20260507175508 25 295 12.9 25.7 0.00 0.00 0.00 53 1006.1
20260507175005 25 19 9.7 30.6 0.00 0.00 0.00 53 1006.3
20260507174539 25 336 12.9 30.6 0.00 0.00 0.00 53 1006.3
20260507174011 25 295 11.3 38.6 0.00 0.00 0.00 54 1006.3
20260507173512 25 39 14.5 40.2 0.00 0.00 0.00 53 1006.5
20260507173025 25 306 19.3 40.2 0.00 0.00 0.00 54 1006.5
20260507172506 25 300 11.3 27.4 0.00 0.00 0.00 54 1006.5
20260507172015 25 359 9.7 25.7 0.00 0.00 0.00 54 1006.6
20260507171539 25 142 6.4 27.4 0.00 0.00 0.00 54 1006.5
20260507171003 25 323 16.1 33.8 0.00 0.00 0.00 53 1006.5
20260507170503 25 337 19.3 33.8 0.00 0.00 0.00 53 1006.6
20260507170012 25 333 16.1 33.8 0.00 0.00 0.00 54 1006.6
20260507165508 25 25 14.5 32.2 0.00 0.00 0.00 54 1006.8
20260507165005 25 296 12.9 29.0 0.00 0.00 0.00 55 1006.9
20260507164514 25 343 8.0 32.2 0.00 0.00 0.00 56 1006.9
20260507164005 25 300 17.7 32.2 0.00 0.00 0.00 55 1007.1
20260507163505 25 303 9.7 30.6 0.00 0.00 0.00 55 1007.3
20260507163023 25 317 14.5 30.6 0.00 0.00 0.00 55 1007.4
20260507162506 26 4 16.1 40.2 0.00 0.00 0.00 56 1007.3
20260507162008 26 322 14.5 40.2 0.00 0.00 0.00 56 1007.4
20260507161526 26 38 12.9 40.2 0.00 0.00 0.00 56 1007.2
20260507161010 26 7 16.1 40.2 0.00 0.00 0.00 57 1007.4
20260507160508 26 322 17.7 35.4 0.00 0.00 0.00 57 1007.4
20260507160030 26 311 20.9 37.0 0.00 0.00 0.00 57 1007.4
20260507155504 26 326 14.5 37.0 0.00 0.00 0.00 58 1007.5
20260507155004 26 19 12.9 30.6 0.00 0.00 0.00 57 1007.5
20260507154518 25 316 12.9 41.8 0.00 0.00 0.00 58 1007.9
20260507154009 25 298 14.5 41.8 0.00 0.00 0.00 59 1007.9
20260507153511 25 18 19.3 35.4 0.00 0.00 0.00 60 1007.8
20260507153025 25 293 17.7 45.1 0.00 0.00 0.00 62 1008.0
20260507152503 25 314 19.3 45.1 0.00 0.00 0.00 62 1008.0
20260507152001 25 14 20.9 37.0 0.00 0.00 0.00 62 1007.9
20260507151508 25 345 16.1 38.6 0.00 0.00 0.00 63 1008.1
20260507151003 25 14 14.5 40.2 0.00 0.00 0.00 63 1008.2
20260507150503 25 359 17.7 40.2 0.00 0.00 0.00 64 1008.1
20260507150008 24 316 14.5 33.8 0.00 0.00 0.00 65 1008.3
20260507145507 24 6 12.9 29.0 0.00 0.00 0.00 67 1008.4
20260507145006 24 345 9.7 32.2 0.00 0.00 0.00 66 1008.6
20260507144506 23 300 8.0 32.2 0.00 0.00 0.00 68 1008.9
20260507144006 23 346 19.3 32.2 0.00 0.00 0.00 69 1009.0
20260507143503 23 340 9.7 27.4 0.00 0.00 0.00 71 1009.3
20260507143008 23 325 12.9 27.4 0.00 0.00 0.00 71 1009.5
20260507142506 22 35 14.5 27.4 0.00 0.00 0.00 71 1009.6
20260507142003 22 290 9.7 38.6 0.00 0.00 0.00 71 1009.8
20260507141508 23 297 11.3 38.6 0.00 0.00 0.00 71 1009.9
20260507141003 23 36 9.7 38.6 0.00 0.00 0.00 69 1010.1
20260507140503 23 16 9.7 22.5 0.00 0.00 0.00 71 1010.2
20260507140017 22 27 9.7 25.7 0.00 0.00 0.00 71 1010.3
20260507135504 22 326 8.0 33.8 0.00 0.00 0.00 73 1010.4
20260507135007 22 320 14.5 33.8 0.00 0.00 0.00 72 1010.6
20260507134508 22 19 16.1 32.2 0.00 0.00 0.00 73 1010.4
20260507134004 22 285 11.3 25.7 0.00 0.00 0.00 73 1010.5
20260507133504 22 19 12.9 30.6 0.00 0.00 0.00 74 1010.5
20260507133010 22 313 8.0 30.6 0.00 0.00 0.00 74 1010.8
20260507132504 22 312 14.5 27.4 0.00 0.00 0.00 73 1010.7
20260507132003 22 287 11.3 32.2 0.00 0.00 0.00 74 1010.7
20260507131508 22 307 14.5 32.2 0.00 0.00 0.00 73 1010.9
20260507131007 22 308 12.9 35.4 0.00 0.00 0.00 73 1010.9
20260507130503 22 39 17.7 40.2 0.00 0.00 0.00 73 1010.9
20260507130009 22 320 12.9 40.2 0.00 0.00 0.00 74 1011.0
20260507125506 22 27 19.3 30.6 0.00 0.00 0.00 74 1010.8
20260507125004 22 326 16.1 32.2 0.00 0.00 0.00 74 1010.8
20260507124511 22 303 14.5 35.4 0.00 0.00 0.00 74 1010.8
20260507124003 22 359 14.5 35.4 0.00 0.00 0.00 74 1010.8
20260507123505 21 347 17.7 30.6 0.00 0.00 0.00 75 1010.9
20260507123006 21 39 16.1 35.4 0.00 0.00 0.00 75 1011.1
20260507122503 22 18 11.3 35.4 0.00 0.00 0.00 74 1011.2
20260507122004 22 306 12.9 35.4 0.00 0.00 0.00 74 1011.2
20260507121509 22 333 14.5 41.8 0.00 0.00 0.00 73 1010.8
20260507121004 22 300 16.1 41.8 0.00 0.00 0.00 73 1010.9
20260507120504 22 8 17.7 43.5 0.00 0.00 0.00 73 1011.0
20260507120025 22 352 17.7 43.5 0.00 0.00 0.00 73 1011.2
20260507115504 22 24 19.3 38.6 0.00 0.00 0.00 72 1011.2
20260507115003 22 297 22.5 38.6 0.00 0.00 0.00 73 1010.9
20260507114512 22 307 20.9 37.0 0.00 0.00 0.00 73 1010.9
20260507114004 22 305 19.3 37.0 0.00 0.00 0.00 72 1011.1
20260507113506 22 325 20.9 45.1 0.00 0.00 0.00 71 1011.0
20260507113017 22 309 22.5 45.1 0.00 0.00 0.00 71 1010.9
20260507112506 22 6 22.5 37.0 0.00 0.00 0.00 71 1010.9
20260507112004 22 323 14.5 32.2 0.00 0.00 0.00 72 1011.1
20260507111513 22 307 17.7 27.4 0.00 0.00 0.00 72 1011.0
20260507111004 22 296 11.3 40.2 0.00 0.00 0.00 72 1011.0
20260507110503 22 323 20.9 40.2 0.00 0.00 0.00 71 1011.0
20260507110010 22 304 12.9 27.4 0.00 0.00 0.00 70 1011.3
20260507105504 22 314 8.0 37.0 0.00 0.00 0.00 70 1011.4
20260507105003 22 353 12.9 37.0 0.00 0.00 0.00 70 1011.2
20260507104518 22 347 11.3 30.6 0.00 0.00 0.00 70 1011.1
20260507104006 22 347 16.1 30.6 0.00 0.00 0.00 71 1011.0
20260507103506 22 339 17.7 37.0 0.00 0.00 0.00 71 1011.0
20260507103011 22 321 14.5 37.0 0.00 0.00 0.00 71 1010.9
20260507102504 22 344 19.3 33.8 0.00 0.00 0.00 71 1010.9
20260507102006 22 349 14.5 33.8 0.00 0.00 0.00 72 1010.9
20260507101520 22 339 14.5 30.6 0.00 0.00 0.00 72 1010.9
20260507101007 22 352 17.7 32.2 0.00 0.00 0.00 73 1011.0
20260507100503 22 19 12.9 32.2 0.00 0.00 0.00 73 1010.8
20260507100028 22 27 17.7 30.6 0.00 0.00 0.00 74 1010.8
20260507095506 21 308 19.3 32.2 0.00 0.00 0.00 75 1010.7
20260507095004 21 335 12.9 38.6 0.00 0.00 0.00 76 1010.9
20260507094510 21 22 19.3 38.6 0.00 0.00 0.00 76 1010.9
20260507094003 21 13 14.5 37.0 0.00 0.00 0.00 76 1010.8
20260507093504 21 330 19.3 37.0 0.00 0.00 0.00 76 1011.0
20260507093014 21 14 12.9 37.0 0.00 0.00 0.00 77 1011.0
20260507092509 21 27 9.7 29.0 0.00 0.00 0.00 76 1011.0
20260507092008 21 315 9.7 22.5 0.00 0.00 0.00 76 1011.0
20260507091513 21 10 9.7 30.6 0.00 0.00 0.00 76 1011.2
20260507091004 21 322 12.9 32.2 0.00 0.00 0.00 76 1011.3
20260507090510 21 344 14.5 32.2 0.00 0.00 0.00 76 1011.1
20260507090015 21 4 12.9 30.6 0.00 0.00 0.00 77 1011.3
20260507085504 21 307 9.7 25.7 0.00 0.00 0.00 76 1011.1
20260507085005 21 345 14.5 25.7 0.00 0.00 0.00 76 1011.3
20260507084530 21 359 8.0 22.5 0.00 0.00 0.00 76 1011.4
20260507084004 21 352 11.3 22.5 0.00 0.00 0.00 75 1011.4
20260507083506 21 35 11.3 25.7 0.00 0.00 0.00 75 1011.6
20260507083021 21 342 14.5 30.6 0.00 0.00 0.00 75 1011.5
20260507082504 21 67 9.7 30.6 0.00 0.00 0.00 75 1011.8
20260507082003 22 21 11.3 30.6 0.00 0.00 0.00 74 1011.8
20260507081514 22 15 11.3 27.4 0.00 0.00 0.00 74 1011.9
20260507081010 22 15 9.7 27.4 0.00 0.00 0.00 74 1011.9
20260507080505 22 316 11.3 37.0 0.00 0.00 0.00 74 1011.9
20260507080016 22 352 11.3 37.0 0.00 0.00 0.00 74 1011.8
20260507075503 22 347 6.4 22.5 0.00 0.00 0.00 74 1011.9
20260507075008 22 323 9.7 29.0 0.00 0.00 0.00 74 1011.9
20260507074516 22 313 9.7 29.0 0.00 0.00 0.00 75 1012.1
20260507074005 22 330 8.0 29.0 0.00 0.00 0.00 74 1012.0
20260507073505 22 326 9.7 29.0 0.00 0.00 0.00 74 1011.9
20260507073014 22 4 12.9 29.0 0.00 0.00 0.00 74 1011.9
20260507072509 22 356 14.5 33.8 0.00 0.00 0.00 74 1011.8
20260507072003 22 309 14.5 33.8 0.00 0.00 0.00 74 1011.9
20260507071518 21 308 16.1 27.4 0.00 0.00 0.00 74 1011.9
20260507071008 21 319 16.1 27.4 0.00 0.00 0.00 74 1011.8
20260507070507 21 324 14.5 27.4 0.00 0.00 0.00 74 1011.8
20260507070021 21 32 14.5 27.4 0.00 0.00 0.00 73 1011.9
20260507065505 22 320 16.1 27.4 0.00 0.00 0.00 73 1011.9
20260507065006 22 324 16.1 27.4 0.00 0.00 0.00 73 1012.1
20260507064518 22 330 16.1 29.0 0.00 0.00 0.00 72 1012.2
20260507064006 22 342 14.5 29.0 0.00 0.00 0.00 72 1012.2
20260507063506 22 337 16.1 32.2 0.00 0.00 0.00 72 1012.3
20260507063017 22 319 12.9 32.2 0.00 0.00 0.00 72 1012.2
20260507062505 22 11 14.5 29.0 0.00 0.00 0.00 72 1012.6
20260507062006 22 15 11.3 29.0 0.00 0.00 0.00 72 1012.5
20260507061520 22 8 19.3 38.6 0.00 0.00 0.00 72 1012.7
20260507061010 22 328 14.5 38.6 0.00 0.00 0.00 72 1012.9
20260507060507 22 311 12.9 30.6 0.00 0.00 0.00 72 1012.8
20260507060031 22 312 11.3 41.8 0.00 0.00 0.00 72 1013.0
20260507055508 22 322 11.3 41.8 0.00 0.00 0.00 72 1013.1
20260507055007 22 305 14.5 29.0 0.00 0.00 0.00 72 1013.0
20260507054532 22 322 12.9 25.7 0.00 0.00 0.00 72 1013.2
20260507054007 22 345 14.5 29.0 0.00 0.00 0.00 72 1013.2
20260507053507 22 323 14.5 32.2 0.00 0.00 0.00 73 1013.2
20260507053020 21 359 17.7 32.2 0.00 0.00 0.00 73 1013.3
20260507052506 21 328 16.1 27.4 0.00 0.00 0.00 74 1013.2
20260507052007 21 342 14.5 24.1 0.00 0.00 0.00 74 1013.5
20260507051520 21 321 11.3 37.0 0.00 0.00 0.00 74 1013.6
20260507051009 22 347 12.9 37.0 0.00 0.00 0.00 74 1013.7
20260507050505 22 319 14.5 35.4 0.00 0.00 0.00 74 1013.8
20260507050043 22 18 16.1 35.4 0.00 0.00 0.00 74 1013.9
20260507045508 21 319 16.1 29.0 0.00 0.00 0.00 74 1013.9
20260507045007 21 288 16.1 29.0 0.00 0.00 0.00 74 1014.0
20260507044524 22 344 16.1 29.0 0.00 0.00 0.00 74 1014.1
20260507044007 22 334 16.1 30.6 0.00 0.00 0.00 74 1014.3
20260507043507 22 326 17.7 30.6 0.00 0.00 0.00 73 1014.4
20260507043021 22 316 14.5 27.4 0.00 0.00 0.00 73 1014.4
20260507042509 22 326 12.9 24.1 0.00 0.00 0.00 73 1014.6
20260507042003 22 346 12.9 27.4 0.00 0.00 0.00 73 1014.6
20260507041513 22 295 9.7 27.4 0.00 0.00 0.00 73 1014.7
20260507041003 22 309 14.5 27.4 0.00 0.00 0.00 73 1014.9
20260507040506 22 318 11.3 24.1 0.00 0.00 0.00 73 1014.9
20260507040021 22 359 9.7 22.5 0.00 0.00 0.00 74 1015.0
20260507035505 22 314 8.0 22.5 0.00 0.00 0.00 74 1015.0
20260507035007 22 9 12.9 22.5 0.00 0.00 0.00 74 1015.2
20260507034529 22 321 8.0 22.5 0.00 0.00 0.00 74 1015.3
20260507034013 22 31 9.7 22.5 0.00 0.00 0.00 74 1015.4
20260507033507 22 323 9.7 22.5 0.00 0.00 0.00 74 1015.4
20260507033004 22 304 9.7 22.5 0.00 0.00 0.00 75 1015.5
20260507032504 22 17 9.7 17.7 0.00 0.00 0.00 75 1015.5
20260507032003 22 330 8.0 16.1 0.00 0.00 0.00 75 1015.6
20260507031508 22 335 6.4 22.5 0.00 0.00 0.00 75 1015.6
20260507031004 22 29 9.7 22.5 0.00 0.00 0.00 75 1015.8
20260507030504 22 300 11.3 30.6 0.00 0.00 0.00 75 1015.9
20260507030013 22 3 14.5 30.6 0.00 0.00 0.00 75 1015.9
20260507025509 22 326 9.7 17.7 0.00 0.00 0.00 75 1016.1
20260507025008 22 4 9.7 17.7 0.00 0.00 0.00 75 1016.0
20260507024520 22 330 6.4 19.3 0.00 0.00 0.00 74 1016.1
20260507024009 22 1 8.0 19.3 0.00 0.00 0.00 74 1016.2
20260507023509 22 6 6.4 16.1 0.00 0.00 0.00 74 1016.3
20260507023021 22 340 6.4 16.1 0.00 0.00 0.00 74 1016.4
20260507022509 22 37 8.0 19.3 0.00 0.00 0.00 74 1016.4
20260507022009 22 322 6.4 19.3 0.00 0.00 0.00 74 1016.4
20260507021515 22 18 9.7 19.3 0.00 0.00 0.00 73 1016.5
20260507021004 21 309 6.4 16.1 0.00 0.00 0.00 74 1016.6
20260507020504 21 342 6.4 12.9 0.00 0.00 0.00 74 1016.7
20260507020019 21 356 6.4 12.9 0.00 0.00 0.00 74 1016.7
20260507015506 21 1 8.0 12.9 0.00 0.00 0.00 75 1016.7
20260507015004 21 323 8.0 14.5 0.00 0.00 0.00 76 1016.8
20260507014520 21 351 9.7 14.5 0.00 0.00 0.00 77 1016.8
20260507014005 21 323 8.0 12.9 0.00 0.00 0.00 78 1016.8
20260507013506 21 314 8.0 12.9 0.00 0.00 0.00 77 1016.8
20260507013018 21 7 8.0 11.3 0.00 0.00 0.00 77 1016.8
20260507012506 21 335 6.4 11.3 0.00 0.00 0.00 78 1016.8
20260507012009 21 1 6.4 11.3 0.00 0.00 0.00 78 1016.9
20260507011530 21 324 6.4 14.5 0.00 0.00 0.00 78 1016.9
20260507011007 21 320 8.0 14.5 0.00 0.00 0.00 78 1017.0
20260507010510 21 352 8.0 14.5 0.00 0.00 0.00 77 1017.0
20260507010018 21 334 8.0 14.5 0.00 0.00 0.00 78 1016.9
20260507005503 21 328 9.7 12.9 0.00 0.00 0.00 78 1017.0
20260507005007 21 301 8.0 14.5 0.00 0.00 0.00 78 1017.0
20260507004519 21 321 8.0 16.1 0.00 0.00 0.00 77 1017.0
20260507004004 21 330 9.7 16.1 0.00 0.00 0.00 76 1017.2
20260507003508 21 311 9.7 16.1 0.00 0.00 0.00 77 1017.3
20260507003016 21 358 8.0 16.1 0.00 0.00 0.00 76 1017.2
20260507002504 21 342 9.7 17.7 0.00 0.00 0.00 75 1017.3
20260507002006 21 331 12.9 17.7 0.00 0.00 0.00 75 1017.4
20260507001522 21 323 9.7 14.5 0.00 0.00 0.00 76 1017.4
20260507001008 21 311 8.0 16.1 0.00 0.00 0.00 76 1017.5
20260507000512 21 323 9.7 16.1 0.00 0.00 0.00 76 1017.4
20260507000032 21 316 9.7 14.5 0.00 0.00 0.00 74 1017.4
20260506235507 21 322 9.7 14.5 0.00 0.00 0.00 76 1017.4
20260506235011 21 307 11.3 14.5 0.00 0.00 0.00 78 1017.4
20260506234507 21 331 8.0 14.5 0.00 0.00 0.00 79 1017.3
20260506234004 21 319 8.0 16.1 0.00 0.00 0.00 78 1017.4
20260506233504 21 313 9.7 16.1 0.00 0.00 0.00 78 1017.5
20260506233014 21 310 8.0 14.5 0.00 0.00 0.00 79 1017.5
20260506232503 21 319 9.7 14.5 0.00 0.00 0.00 80 1017.4
20260506232008 21 305 8.0 11.3 0.00 0.00 0.00 80 1017.4
20260506231524 21 333 8.0 16.1 0.00 0.00 0.00 79 1017.4
20260506231007 21 328 8.0 16.1 0.00 0.00 0.00 79 1017.4
20260506230506 21 360 9.7 16.1 0.00 0.00 0.00 80 1017.3
20260506230026 21 335 8.0 14.5 0.00 0.00 0.00 81 1017.3
20260506225511 20 345 9.7 14.5 0.00 0.00 0.00 80 1017.3
20260506225008 20 340 6.4 11.3 0.00 0.00 0.00 82 1017.3
20260506224523 20 349 8.0 11.3 0.00 0.00 0.00 82 1017.3
20260506224007 20 319 8.0 11.3 0.00 0.00 0.00 82 1017.3
20260506223511 20 323 8.0 11.3 0.00 0.00 0.00 82 1017.4
20260506223016 20 335 8.0 14.5 0.00 0.00 0.00 82 1017.5
20260506222506 21 323 8.0 14.5 0.00 0.00 0.00 81 1017.5
20260506222013 20 354 9.7 14.5 0.00 0.00 0.00 81 1017.5
20260506221514 20 335 8.0 14.5 0.00 0.00 0.00 82 1017.5
20260506221007 21 343 8.0 14.5 0.00 0.00 0.00 81 1017.5
20260506220504 20 335 9.7 14.5 0.00 0.00 0.00 83 1017.5
20260506220029 20 318 8.0 11.3 0.00 0.00 0.00 82 1017.6
20260506215506 20 326 8.0 11.3 0.00 0.00 0.00 84 1017.6
20260506215012 20 346 8.0 9.7 0.00 0.00 0.00 83 1017.6
20260506214522 20 345 8.0 11.3 0.00 0.00 0.00 84 1017.5
20260506214008 20 3 8.0 11.3 0.00 0.00 0.00 84 1017.4
20260506213510 20 333 8.0 11.3 0.00 0.00 0.00 84 1017.4
20260506213030 21 359 8.0 11.3 0.00 0.00 0.00 84 1017.3
20260506212508 21 326 8.0 12.9 0.00 0.00 0.00 83 1017.4
20260506212011 21 345 8.0 12.9 0.00 0.00 0.00 84 1017.5
20260506211510 21 322 8.0 11.3 0.00 0.00 0.00 85 1017.4
20260506211003 21 333 8.0 14.5 0.00 0.00 0.00 83 1017.2
20260506210505 21 336 8.0 14.5 0.00 0.00 0.00 81 1017.3
20260506210025 21 338 8.0 12.9 0.00 0.00 0.00 82 1017.4
20260506205508 21 359 9.7 12.9 0.00 0.00 0.00 81 1017.5
20260506205008 21 328 8.0 11.3 0.00 0.00 0.00 84 1017.5
20260506204519 21 327 6.4 9.7 0.00 0.00 0.00 83 1017.4
20260506204010 22 333 6.4 9.7 0.00 0.00 0.00 82 1017.5
20260506203511 22 352 6.4 9.7 0.00 0.00 0.00 82 1017.7
20260506203029 22 342 6.4 11.3 0.00 0.00 0.00 81 1017.6
20260506202507 22 332 6.4 11.3 0.00 0.00 0.00 80 1017.5